Retour au catalogue

STARLINK-2373

ActifCommunicationsVLEO
NORAD 47796·PAYLOAD·🇺🇸 United States

Lancé Mar 11, 2021 depuis Cape Canaveral Space Force Station

Loading…

Prochains Passages (prochaines 24 heures)

TLE

FraisSource: CelesTrak SupGP

Époque: Sep 14, 2026, 21:48 UTC

1 47796C 21018K   26257.90881944  .00080694  00000+0  18594-2 0  2572
2 47796  53.1532  73.9543 0001786 128.8219 174.3588 15.41976595    17

Suivez STARLINK-2373 en temps réel avec AllMySat

Download on the App Store